Year,Month,Day,Hour,Minute,Value (Times are PST for windgust in km/hr)
2019,04,07,00,12,1.60
2019,04,07,00,13,1.60
2019,04,07,00,14,3.20
2019,04,07,00,15,3.20
2019,04,07,00,16,1.60
2019,04,07,00,17,1.60
2019,04,07,00,18,1.60
2019,04,07,00,19,3.20
2019,04,07,00,20,3.20
2019,04,07,00,21,3.20
2019,04,07,00,22,3.20
2019,04,07,00,23,3.20
2019,04,07,00,24,1.60
2019,04,07,00,25,3.20
2019,04,07,00,26,4.80
2019,04,07,00,27,4.80
2019,04,07,00,28,4.80
2019,04,07,00,29,4.80
2019,04,07,00,30,4.80
2019,04,07,00,31,3.20
2019,04,07,00,32,4.80
2019,04,07,00,33,4.80
2019,04,07,00,34,8.10
2019,04,07,00,35,6.40
2019,04,07,00,36,1.60
2019,04,07,00,37,1.60
2019,04,07,00,38,3.20
2019,04,07,00,39,1.60
2019,04,07,00,40,3.20
2019,04,07,00,41,4.80
2019,04,07,00,42,6.40
2019,04,07,00,43,1.60
2019,04,07,00,44,3.20
2019,04,07,00,45,3.20
2019,04,07,00,46,1.60
2019,04,07,00,47,3.20
2019,04,07,00,48,4.80
2019,04,07,00,49,6.40
2019,04,07,00,50,3.20
2019,04,07,00,51,4.80
2019,04,07,00,52,8.10
2019,04,07,00,53,3.20
2019,04,07,00,54,4.80
2019,04,07,00,55,4.80
2019,04,07,00,56,4.80
2019,04,07,00,57,4.80
2019,04,07,00,58,3.20
2019,04,07,00,59,3.20
2019,04,07,01,00,4.80
2019,04,07,01,01,6.40
2019,04,07,01,02,8.10
2019,04,07,01,03,1.60
2019,04,07,01,04,3.20
2019,04,07,01,05,4.80
2019,04,07,01,06,3.20
2019,04,07,01,07,1.60
2019,04,07,01,08,9.60
2019,04,07,01,09,4.80
2019,04,07,01,10,8.10
2019,04,07,01,11,3.20
2019,04,07,01,12,3.20
2019,04,07,01,13,3.20
2019,04,07,01,14,3.20
2019,04,07,01,15,3.20
2019,04,07,01,16,4.80
2019,04,07,01,17,3.20
2019,04,07,01,18,4.80
2019,04,07,01,19,3.20
2019,04,07,01,20,1.60
2019,04,07,01,21,3.20
2019,04,07,01,22,3.20
2019,04,07,01,23,3.20
2019,04,07,01,24,4.80
2019,04,07,01,25,4.80
2019,04,07,01,26,6.40
2019,04,07,01,27,6.40
2019,04,07,01,28,4.80
2019,04,07,01,29,3.20
2019,04,07,01,30,4.80
2019,04,07,01,31,6.40
2019,04,07,01,32,6.40
2019,04,07,01,33,4.80
2019,04,07,01,34,6.40
2019,04,07,01,35,3.20
2019,04,07,01,36,3.20
2019,04,07,01,37,4.80
2019,04,07,01,38,3.20
2019,04,07,01,39,3.20
2019,04,07,01,40,3.20
2019,04,07,01,41,3.20
2019,04,07,01,42,3.20
2019,04,07,01,43,4.80
2019,04,07,01,44,1.60
2019,04,07,01,45,6.40
2019,04,07,01,46,6.40
2019,04,07,01,47,3.20
2019,04,07,01,48,4.80
2019,04,07,01,49,1.60
2019,04,07,01,50,8.10
2019,04,07,01,51,4.80
2019,04,07,01,52,3.20
2019,04,07,01,53,4.80
2019,04,07,01,54,8.10
2019,04,07,01,55,6.40
2019,04,07,01,56,4.80
2019,04,07,01,57,4.80
2019,04,07,01,58,3.20
2019,04,07,01,59,8.10
2019,04,07,02,00,4.80
2019,04,07,02,01,8.10
2019,04,07,02,02,6.40
2019,04,07,02,03,9.60
2019,04,07,02,04,9.60
2019,04,07,02,05,6.40
2019,04,07,02,06,4.80
2019,04,07,02,07,6.40
2019,04,07,02,08,4.80
2019,04,07,02,09,4.80
2019,04,07,02,10,4.80
2019,04,07,02,11,11.30
2019,04,07,02,12,6.40
2019,04,07,02,13,4.80
2019,04,07,02,14,4.80
2019,04,07,02,15,6.40
2019,04,07,02,16,4.80
2019,04,07,02,17,4.80
2019,04,07,02,18,4.80
2019,04,07,02,19,8.10
2019,04,07,02,20,6.40
2019,04,07,02,21,4.80
2019,04,07,02,22,9.60
2019,04,07,02,23,6.40
2019,04,07,02,24,6.40
2019,04,07,02,25,6.40
2019,04,07,02,26,4.80
2019,04,07,02,27,4.80
2019,04,07,02,28,8.10
2019,04,07,02,29,4.80
2019,04,07,02,30,8.10
2019,04,07,02,31,4.80
2019,04,07,02,32,3.20
2019,04,07,02,33,4.80
2019,04,07,02,34,4.80
2019,04,07,02,35,6.40
2019,04,07,02,36,4.80
2019,04,07,02,37,8.10
2019,04,07,02,38,6.40
2019,04,07,02,39,8.10
2019,04,07,02,40,4.80
2019,04,07,02,41,4.80
2019,04,07,02,42,3.20
2019,04,07,02,43,4.80
2019,04,07,02,44,8.10
2019,04,07,02,45,4.80
2019,04,07,02,46,9.60
2019,04,07,02,47,4.80
2019,04,07,02,48,6.40
2019,04,07,02,49,4.80
2019,04,07,02,50,3.20
2019,04,07,02,51,4.80
2019,04,07,02,52,1.60
2019,04,07,02,53,4.80
2019,04,07,02,54,3.20
2019,04,07,02,55,3.20
2019,04,07,02,56,6.40
2019,04,07,02,57,6.40
2019,04,07,02,58,3.20
2019,04,07,02,59,4.80
2019,04,07,03,00,4.80
2019,04,07,03,01,4.80
2019,04,07,03,02,4.80
2019,04,07,03,03,4.80
2019,04,07,03,04,3.20
2019,04,07,03,05,3.20
2019,04,07,03,06,4.80
2019,04,07,03,07,8.10
2019,04,07,03,08,4.80
2019,04,07,03,09,6.40
2019,04,07,03,10,6.40
2019,04,07,03,11,6.40
2019,04,07,03,12,6.40
2019,04,07,03,13,6.40
2019,04,07,03,14,8.10
2019,04,07,03,15,6.40
2019,04,07,03,16,6.40
2019,04,07,03,17,6.40
2019,04,07,03,18,1.60
2019,04,07,03,19,1.60
2019,04,07,03,20,1.60
2019,04,07,03,21,1.60
2019,04,07,03,22,1.60
2019,04,07,03,23,1.60
2019,04,07,03,24,1.60
2019,04,07,03,26,1.60
2019,04,07,03,27,1.60
2019,04,07,03,28,3.20
2019,04,07,03,29,4.80
2019,04,07,03,30,4.80
2019,04,07,03,31,3.20
2019,04,07,03,32,4.80
2019,04,07,03,33,3.20
2019,04,07,03,34,3.20
2019,04,07,03,35,3.20
2019,04,07,03,36,3.20
2019,04,07,03,37,1.60
2019,04,07,03,39,3.20
2019,04,07,03,40,3.20
2019,04,07,03,42,1.60
2019,04,07,03,43,1.60
2019,04,07,03,45,1.60
2019,04,07,03,57,1.60
2019,04,07,03,58,1.60
2019,04,07,04,02,1.60
2019,04,07,04,03,3.20
2019,04,07,04,04,1.60
2019,04,07,04,05,1.60
2019,04,07,04,11,3.20
2019,04,07,04,12,1.60
2019,04,07,04,13,1.60
2019,04,07,04,14,1.60
2019,04,07,04,15,1.60
2019,04,07,04,16,1.60
2019,04,07,04,23,1.60
2019,04,07,04,24,1.60
2019,04,07,04,25,1.60
2019,04,07,04,44,1.60
2019,04,07,04,45,1.60
2019,04,07,04,46,1.60
2019,04,07,04,47,1.60
2019,04,07,04,48,1.60
2019,04,07,04,49,1.60
2019,04,07,04,50,1.60
2019,04,07,05,00,1.60
2019,04,07,05,01,1.60
2019,04,07,05,02,1.60
2019,04,07,05,03,1.60
2019,04,07,06,24,1.60
2019,04,07,06,25,1.60
2019,04,07,06,26,1.60
2019,04,07,06,27,1.60
2019,04,07,07,10,3.20
2019,04,07,07,11,3.20
2019,04,07,07,12,1.60
2019,04,07,07,13,1.60
2019,04,07,07,41,1.60
2019,04,07,07,43,1.60
2019,04,07,07,54,1.60
2019,04,07,07,55,1.60
2019,04,07,07,56,1.60
2019,04,07,07,57,1.60
2019,04,07,07,58,1.60
2019,04,07,07,59,3.20
2019,04,07,08,00,1.60
2019,04,07,08,01,1.60
2019,04,07,08,02,3.20
2019,04,07,08,03,1.60
2019,04,07,08,04,1.60
2019,04,07,08,17,1.60
2019,04,07,08,18,3.20
2019,04,07,08,19,3.20
2019,04,07,08,20,3.20
2019,04,07,08,21,3.20
2019,04,07,08,22,1.60
2019,04,07,08,24,1.60
2019,04,07,08,25,3.20
2019,04,07,08,26,3.20
2019,04,07,08,27,1.60
2019,04,07,08,28,3.20
2019,04,07,08,29,3.20
2019,04,07,08,30,3.20
2019,04,07,08,31,3.20
2019,04,07,08,32,1.60
2019,04,07,08,33,1.60
2019,04,07,08,38,1.60
2019,04,07,08,39,1.60
2019,04,07,08,40,3.20
2019,04,07,08,41,3.20
2019,04,07,08,42,3.20
2019,04,07,08,43,4.80
2019,04,07,08,44,4.80
2019,04,07,08,45,3.20
2019,04,07,08,46,3.20
2019,04,07,08,47,1.60
2019,04,07,08,48,3.20
2019,04,07,08,49,3.20
2019,04,07,08,50,3.20
2019,04,07,08,51,3.20
2019,04,07,08,52,3.20
2019,04,07,08,53,3.20
2019,04,07,08,54,1.60
2019,04,07,08,55,3.20
2019,04,07,08,56,3.20
2019,04,07,08,57,3.20
2019,04,07,08,58,4.80
2019,04,07,08,59,1.60
2019,04,07,09,00,3.20
2019,04,07,09,01,4.80
2019,04,07,09,02,4.80
2019,04,07,09,03,4.80
2019,04,07,09,04,4.80
2019,04,07,09,05,3.20
2019,04,07,09,06,3.20
2019,04,07,09,07,3.20
2019,04,07,09,08,3.20
2019,04,07,09,09,3.20
2019,04,07,09,10,3.20
2019,04,07,09,11,3.20
2019,04,07,09,12,3.20
2019,04,07,09,13,3.20
2019,04,07,09,14,3.20
2019,04,07,09,15,4.80
2019,04,07,09,16,4.80
2019,04,07,09,17,4.80
2019,04,07,09,18,6.40
2019,04,07,09,19,6.40
2019,04,07,09,20,3.20
2019,04,07,09,21,3.20
2019,04,07,09,22,3.20
2019,04,07,09,23,3.20
2019,04,07,09,24,8.10
2019,04,07,09,25,8.10
2019,04,07,09,26,6.40
2019,04,07,09,27,9.60
2019,04,07,09,28,4.80
2019,04,07,09,29,6.40
2019,04,07,09,30,9.60
2019,04,07,09,31,3.20
2019,04,07,09,32,1.60
2019,04,07,09,33,1.60
2019,04,07,09,34,3.20
2019,04,07,09,35,3.20
2019,04,07,09,36,4.80
2019,04,07,09,37,8.10
2019,04,07,09,38,1.60
2019,04,07,09,39,6.40
2019,04,07,09,40,9.60
2019,04,07,09,41,14.50
2019,04,07,09,42,9.60
2019,04,07,09,43,8.10
2019,04,07,09,44,9.60
2019,04,07,09,45,4.80
2019,04,07,09,46,4.80
2019,04,07,09,47,3.20
2019,04,07,09,48,3.20
2019,04,07,09,49,6.40
2019,04,07,09,50,3.20
2019,04,07,09,51,4.80
2019,04,07,09,52,8.10
2019,04,07,09,53,6.40
2019,04,07,09,54,3.20
2019,04,07,09,55,3.20
2019,04,07,09,56,3.20
2019,04,07,09,57,3.20
2019,04,07,09,58,3.20
2019,04,07,09,59,3.20
2019,04,07,10,00,3.20
2019,04,07,10,01,3.20
2019,04,07,10,02,8.10
2019,04,07,10,03,4.80
2019,04,07,10,04,8.10
2019,04,07,10,05,3.20
2019,04,07,10,06,3.20
2019,04,07,10,07,3.20
2019,04,07,10,08,3.20
2019,04,07,10,09,6.40
2019,04,07,10,10,8.10
2019,04,07,10,11,4.80
2019,04,07,10,12,3.20
2019,04,07,10,13,9.60
2019,04,07,10,14,3.20
2019,04,07,10,15,8.10
2019,04,07,10,16,6.40
2019,04,07,10,17,6.40
2019,04,07,10,18,1.60
2019,04,07,10,19,1.60
2019,04,07,10,20,3.20
2019,04,07,10,21,9.60
2019,04,07,10,22,9.60
2019,04,07,10,23,3.20
2019,04,07,10,24,9.60
2019,04,07,10,25,4.80
2019,04,07,10,26,4.80
2019,04,07,10,27,8.10
2019,04,07,10,28,11.30
2019,04,07,10,29,6.40
2019,04,07,10,30,4.80
2019,04,07,10,31,6.40
2019,04,07,10,32,8.10
2019,04,07,10,33,9.60
2019,04,07,10,34,11.30
2019,04,07,10,35,8.10
2019,04,07,10,36,11.30
2019,04,07,10,37,6.40
2019,04,07,10,38,8.10
2019,04,07,10,39,3.20
2019,04,07,10,40,1.60
2019,04,07,10,41,8.10
2019,04,07,10,42,8.10
2019,04,07,10,43,6.40
2019,04,07,10,44,6.40
2019,04,07,10,45,3.20
2019,04,07,10,46,6.40
2019,04,07,10,47,8.10
2019,04,07,10,48,8.10
2019,04,07,10,49,3.20
2019,04,07,10,50,1.60
2019,04,07,10,51,1.60
2019,04,07,10,52,11.30
2019,04,07,10,53,9.60
2019,04,07,10,54,3.20
2019,04,07,10,55,1.60
2019,04,07,10,56,1.60
2019,04,07,10,57,6.40
2019,04,07,10,58,8.10
2019,04,07,10,59,8.10
2019,04,07,11,00,4.80
2019,04,07,11,01,3.20
2019,04,07,11,02,6.40
2019,04,07,11,03,4.80
2019,04,07,11,04,9.60
2019,04,07,11,05,8.10
2019,04,07,11,06,9.60
2019,04,07,11,07,8.10
2019,04,07,11,08,11.30
2019,04,07,11,09,12.90
2019,04,07,11,10,11.30
2019,04,07,11,11,11.30
2019,04,07,11,12,8.10
2019,04,07,11,13,11.30
2019,04,07,11,14,3.20
2019,04,07,11,15,8.10
2019,04,07,11,16,8.10
2019,04,07,11,17,6.40
2019,04,07,11,18,4.80
2019,04,07,11,19,6.40
2019,04,07,11,20,8.10
2019,04,07,11,21,8.10
2019,04,07,11,22,6.40
2019,04,07,11,23,4.80
2019,04,07,11,24,4.80
2019,04,07,11,25,6.40
2019,04,07,11,26,11.30
2019,04,07,11,27,9.60
2019,04,07,11,28,9.60
2019,04,07,11,29,9.60
2019,04,07,11,30,9.60
2019,04,07,11,31,6.40
2019,04,07,11,32,6.40
2019,04,07,11,33,4.80
2019,04,07,11,34,8.10
2019,04,07,11,35,4.80
2019,04,07,11,36,4.80
2019,04,07,11,37,3.20
2019,04,07,11,38,8.10
2019,04,07,11,39,9.60
2019,04,07,11,40,6.40
2019,04,07,11,41,8.10
2019,04,07,11,42,6.40
2019,04,07,11,43,6.40
2019,04,07,11,44,6.40
2019,04,07,11,45,3.20
2019,04,07,11,46,3.20
2019,04,07,11,47,8.10
2019,04,07,11,48,6.40
2019,04,07,11,49,3.20
2019,04,07,11,50,3.20
2019,04,07,11,51,3.20
2019,04,07,11,52,9.60
2019,04,07,11,53,6.40
2019,04,07,11,54,8.10
2019,04,07,11,55,4.80
2019,04,07,11,56,4.80
2019,04,07,11,57,17.70
2019,04,07,11,58,8.10
2019,04,07,11,59,4.80
2019,04,07,12,00,12.90
2019,04,07,12,01,17.70
2019,04,07,12,02,9.60
2019,04,07,12,03,8.10
2019,04,07,12,04,8.10
2019,04,07,12,05,4.80
2019,04,07,12,06,6.40
2019,04,07,12,07,16.10
2019,04,07,12,08,17.70
2019,04,07,12,09,8.10
2019,04,07,12,10,14.50
2019,04,07,12,11,8.10
2019,04,07,12,12,6.40
2019,04,07,12,13,3.20
2019,04,07,12,14,3.20
2019,04,07,12,15,6.40
2019,04,07,12,16,6.40
2019,04,07,12,17,12.90
2019,04,07,12,18,6.40
2019,04,07,12,19,9.60
2019,04,07,12,20,8.10
2019,04,07,12,21,12.90
2019,04,07,12,22,11.30
2019,04,07,12,23,9.60
2019,04,07,12,24,9.60
2019,04,07,12,25,4.80
2019,04,07,12,26,9.60
2019,04,07,12,27,8.10
2019,04,07,12,28,9.60
2019,04,07,12,29,6.40
2019,04,07,12,30,3.20
2019,04,07,12,31,11.30
2019,04,07,12,32,12.90
2019,04,07,12,33,11.30
2019,04,07,12,34,12.90
2019,04,07,12,35,19.30
2019,04,07,12,36,11.30
2019,04,07,12,37,9.60
2019,04,07,12,38,6.40
2019,04,07,12,39,9.60
2019,04,07,12,40,9.60
2019,04,07,12,41,12.90
2019,04,07,12,42,19.30
2019,04,07,12,43,12.90
2019,04,07,12,44,11.30
2019,04,07,12,45,6.40
2019,04,07,12,46,6.40
2019,04,07,12,47,9.60
2019,04,07,12,48,6.40
2019,04,07,12,49,3.20
2019,04,07,12,50,3.20
2019,04,07,12,51,12.90
2019,04,07,12,52,6.40
2019,04,07,12,53,3.20
2019,04,07,12,54,3.20
2019,04,07,12,55,6.40
2019,04,07,12,56,11.30
2019,04,07,12,57,11.30
2019,04,07,12,58,8.10
2019,04,07,12,59,11.30
2019,04,07,13,00,3.20
2019,04,07,13,01,9.60
2019,04,07,13,02,9.60
2019,04,07,13,03,8.10
2019,04,07,13,04,11.30
2019,04,07,13,05,6.40
2019,04,07,13,06,9.60
2019,04,07,13,07,4.80
2019,04,07,13,08,4.80
2019,04,07,13,09,6.40
2019,04,07,13,10,12.90
2019,04,07,13,11,9.60
2019,04,07,13,12,4.80
2019,04,07,13,13,9.60
2019,04,07,13,14,9.60
2019,04,07,13,15,4.80
2019,04,07,13,16,6.40
2019,04,07,13,17,4.80
2019,04,07,13,18,3.20
2019,04,07,13,19,3.20
2019,04,07,13,20,4.80
2019,04,07,13,21,3.20
2019,04,07,13,22,8.10
2019,04,07,13,23,9.60
2019,04,07,13,24,8.10
2019,04,07,13,25,6.40
2019,04,07,13,26,8.10
2019,04,07,13,27,4.80
2019,04,07,13,28,4.80
2019,04,07,13,29,6.40
2019,04,07,13,30,8.10
2019,04,07,13,31,8.10
2019,04,07,13,32,11.30
2019,04,07,13,33,6.40
2019,04,07,13,34,12.90
2019,04,07,13,35,9.60
2019,04,07,13,36,9.60
2019,04,07,13,37,3.20
2019,04,07,13,38,3.20
2019,04,07,13,39,6.40
2019,04,07,13,40,8.10
2019,04,07,13,41,8.10
2019,04,07,13,42,6.40
2019,04,07,13,43,3.20
2019,04,07,13,44,4.80
2019,04,07,13,45,3.20
2019,04,07,13,46,4.80
2019,04,07,13,47,6.40
2019,04,07,13,48,3.20
2019,04,07,13,49,6.40
2019,04,07,13,50,14.50
2019,04,07,13,51,8.10
2019,04,07,13,52,4.80
2019,04,07,13,53,8.10
2019,04,07,13,54,3.20
2019,04,07,13,55,8.10
2019,04,07,13,56,12.90
2019,04,07,13,57,12.90
2019,04,07,13,58,11.30
2019,04,07,13,59,11.30
2019,04,07,14,00,14.50
2019,04,07,14,01,11.30
2019,04,07,14,02,12.90
2019,04,07,14,03,8.10
2019,04,07,14,04,9.60
2019,04,07,14,05,11.30
2019,04,07,14,06,11.30
2019,04,07,14,07,8.10
2019,04,07,14,08,4.80
2019,04,07,14,09,8.10
2019,04,07,14,10,9.60
2019,04,07,14,11,6.40
2019,04,07,14,12,8.10
2019,04,07,14,13,9.60
2019,04,07,14,14,6.40
2019,04,07,14,15,8.10
2019,04,07,14,16,8.10
2019,04,07,14,17,6.40
2019,04,07,14,18,8.10
2019,04,07,14,19,8.10
2019,04,07,14,20,6.40
2019,04,07,14,21,11.30
2019,04,07,14,22,4.80
2019,04,07,14,23,4.80
2019,04,07,14,24,6.40
2019,04,07,14,25,12.90
2019,04,07,14,26,8.10
2019,04,07,14,27,6.40
2019,04,07,14,28,8.10
2019,04,07,14,29,12.90
2019,04,07,14,30,6.40
2019,04,07,14,31,6.40
2019,04,07,14,32,3.20
2019,04,07,14,33,3.20
2019,04,07,14,34,8.10
2019,04,07,14,35,6.40
2019,04,07,14,36,9.60
2019,04,07,14,37,8.10
2019,04,07,14,38,4.80
2019,04,07,14,39,4.80
2019,04,07,14,40,4.80
2019,04,07,14,41,6.40
2019,04,07,14,42,6.40
2019,04,07,14,43,22.50
2019,04,07,14,44,9.60
2019,04,07,14,45,9.60
2019,04,07,14,46,14.50
2019,04,07,14,47,3.20
2019,04,07,14,48,6.40
2019,04,07,14,49,4.80
2019,04,07,14,50,6.40
2019,04,07,14,51,4.80
2019,04,07,14,52,4.80
2019,04,07,14,53,8.10
2019,04,07,14,54,17.70
2019,04,07,14,55,4.80
2019,04,07,14,56,6.40
2019,04,07,14,57,6.40
2019,04,07,14,58,14.50
2019,04,07,14,59,22.50
2019,04,07,15,00,19.30
2019,04,07,15,01,11.30
2019,04,07,15,02,12.90
2019,04,07,15,03,6.40
2019,04,07,15,04,3.20
2019,04,07,15,05,3.20
2019,04,07,15,06,9.60
2019,04,07,15,07,16.10
2019,04,07,15,08,9.60
2019,04,07,15,09,9.60
2019,04,07,15,10,3.20
2019,04,07,15,11,6.40
2019,04,07,15,12,8.10
2019,04,07,15,13,6.40
2019,04,07,15,14,9.60
2019,04,07,15,15,12.90
2019,04,07,15,16,6.40
2019,04,07,15,17,12.90
2019,04,07,15,18,8.10
2019,04,07,15,19,14.50
2019,04,07,15,20,12.90
2019,04,07,15,21,8.10
2019,04,07,15,22,8.10
2019,04,07,15,23,4.80
2019,04,07,15,24,6.40
2019,04,07,15,25,12.90
2019,04,07,15,26,16.10
2019,04,07,15,27,17.70
2019,04,07,15,28,8.10
2019,04,07,15,29,8.10
2019,04,07,15,30,8.10
2019,04,07,15,31,12.90
2019,04,07,15,32,9.60
2019,04,07,15,33,9.60
2019,04,07,15,34,17.70
2019,04,07,15,35,4.80
2019,04,07,15,36,4.80
2019,04,07,15,37,8.10
2019,04,07,15,38,11.30
2019,04,07,15,39,9.60
2019,04,07,15,40,6.40
2019,04,07,15,41,11.30
2019,04,07,15,42,14.50
2019,04,07,15,43,6.40
2019,04,07,15,44,9.60
2019,04,07,15,45,8.10
2019,04,07,15,46,8.10
2019,04,07,15,47,6.40
2019,04,07,15,48,8.10
2019,04,07,15,49,8.10
2019,04,07,15,50,12.90
2019,04,07,15,51,11.30
2019,04,07,15,52,14.50
2019,04,07,15,53,17.70
2019,04,07,15,54,17.70
2019,04,07,15,55,9.60
2019,04,07,15,56,6.40
2019,04,07,15,57,9.60
2019,04,07,15,58,14.50
2019,04,07,15,59,8.10
2019,04,07,16,00,12.90
2019,04,07,16,01,4.80
2019,04,07,16,02,4.80
2019,04,07,16,03,14.50
2019,04,07,16,04,8.10
2019,04,07,16,05,4.80
2019,04,07,16,06,4.80
2019,04,07,16,07,11.30
2019,04,07,16,08,14.50
2019,04,07,16,09,11.30
2019,04,07,16,10,11.30
2019,04,07,16,11,8.10
2019,04,07,16,12,8.10
2019,04,07,16,13,9.60
2019,04,07,16,14,4.80
2019,04,07,16,15,6.40
2019,04,07,16,16,6.40
2019,04,07,16,17,11.30
2019,04,07,16,18,12.90
2019,04,07,16,19,4.80
2019,04,07,16,20,14.50
2019,04,07,16,21,11.30
2019,04,07,16,22,14.50
2019,04,07,16,23,14.50
2019,04,07,16,24,11.30
2019,04,07,16,25,6.40
2019,04,07,16,26,14.50
2019,04,07,16,27,6.40
2019,04,07,16,28,9.60
2019,04,07,16,29,16.10
2019,04,07,16,30,6.40
2019,04,07,16,31,16.10
2019,04,07,16,32,14.50
2019,04,07,16,33,14.50
2019,04,07,16,34,16.10
2019,04,07,16,35,8.10
2019,04,07,16,36,6.40
2019,04,07,16,37,17.70
2019,04,07,16,38,14.50
2019,04,07,16,39,8.10
2019,04,07,16,40,8.10
2019,04,07,16,41,6.40
2019,04,07,16,42,6.40
2019,04,07,16,43,16.10
2019,04,07,16,44,8.10
2019,04,07,16,45,12.90
2019,04,07,16,46,8.10
2019,04,07,16,47,3.20
2019,04,07,16,48,11.30
2019,04,07,16,49,6.40
2019,04,07,16,50,8.10
2019,04,07,16,51,11.30
2019,04,07,16,52,8.10
2019,04,07,16,53,3.20
2019,04,07,16,54,3.20
2019,04,07,16,55,6.40
2019,04,07,16,56,6.40
2019,04,07,16,57,6.40
2019,04,07,16,58,8.10
2019,04,07,16,59,8.10
2019,04,07,17,00,11.30
2019,04,07,17,01,11.30
2019,04,07,17,02,8.10
2019,04,07,17,03,8.10
2019,04,07,17,04,8.10
2019,04,07,17,05,6.40
2019,04,07,17,06,6.40
2019,04,07,17,07,3.20
2019,04,07,17,08,1.60
2019,04,07,17,09,11.30
2019,04,07,17,10,14.50
2019,04,07,17,11,12.90
2019,04,07,17,12,11.30
2019,04,07,17,13,9.60
2019,04,07,17,14,16.10
2019,04,07,17,15,14.50
2019,04,07,17,16,6.40
2019,04,07,17,17,9.60
2019,04,07,17,18,17.70
2019,04,07,17,19,17.70
2019,04,07,17,20,14.50
2019,04,07,17,21,8.10
2019,04,07,17,22,8.10
2019,04,07,17,23,9.60
2019,04,07,17,24,3.20
2019,04,07,17,25,12.90
2019,04,07,17,26,9.60
2019,04,07,17,27,9.60
2019,04,07,17,28,14.50
2019,04,07,17,29,17.70
2019,04,07,17,30,12.90
2019,04,07,17,31,12.90
2019,04,07,17,32,20.90
2019,04,07,17,33,19.30
2019,04,07,17,34,17.70
2019,04,07,17,35,12.90
2019,04,07,17,36,11.30
2019,04,07,17,37,17.70
2019,04,07,17,38,14.50
2019,04,07,17,39,14.50
2019,04,07,17,40,12.90
2019,04,07,17,41,9.60
2019,04,07,17,42,11.30
2019,04,07,17,43,12.90
2019,04,07,17,44,17.70
2019,04,07,17,45,19.30
2019,04,07,17,46,17.70
2019,04,07,17,47,17.70
2019,04,07,17,48,19.30
2019,04,07,17,49,11.30
2019,04,07,17,50,9.60
2019,04,07,17,51,11.30
2019,04,07,17,52,8.10
2019,04,07,17,53,11.30
2019,04,07,17,54,11.30
2019,04,07,17,55,9.60
2019,04,07,17,56,8.10
2019,04,07,17,57,12.90
2019,04,07,17,58,12.90
2019,04,07,17,59,14.50
2019,04,07,18,00,11.30
2019,04,07,18,01,14.50
2019,04,07,18,02,20.90
2019,04,07,18,03,12.90
2019,04,07,18,04,11.30
2019,04,07,18,05,6.40
2019,04,07,18,06,9.60
2019,04,07,18,07,9.60
2019,04,07,18,08,12.90
2019,04,07,18,09,12.90
2019,04,07,18,10,6.40
2019,04,07,18,11,12.90
2019,04,07,18,12,11.30
2019,04,07,18,13,9.60
2019,04,07,18,14,14.50
2019,04,07,18,15,12.90
2019,04,07,18,16,11.30
2019,04,07,18,17,11.30
2019,04,07,18,18,3.20
2019,04,07,18,19,17.70
2019,04,07,18,20,11.30
2019,04,07,18,21,8.10
2019,04,07,18,22,6.40
2019,04,07,18,23,8.10
2019,04,07,18,24,17.70
2019,04,07,18,25,11.30
2019,04,07,18,26,12.90
2019,04,07,18,27,14.50
2019,04,07,18,28,12.90
2019,04,07,18,29,6.40
2019,04,07,18,30,6.40
2019,04,07,18,31,12.90
2019,04,07,18,32,9.60
2019,04,07,18,33,6.40
2019,04,07,18,34,4.80
2019,04,07,18,35,4.80
2019,04,07,18,36,8.10
2019,04,07,18,37,8.10
2019,04,07,18,38,1.60
2019,04,07,18,39,3.20
2019,04,07,18,40,6.40
2019,04,07,18,41,4.80
2019,04,07,18,42,11.30
2019,04,07,18,43,6.40
2019,04,07,18,44,6.40
2019,04,07,18,45,3.20
2019,04,07,18,46,1.60
2019,04,07,18,48,3.20
2019,04,07,18,49,3.20
2019,04,07,18,50,3.20
2019,04,07,18,51,1.60
2019,04,07,18,52,3.20
2019,04,07,18,53,3.20
2019,04,07,18,54,1.60
2019,04,07,18,55,1.60
2019,04,07,18,56,6.40
2019,04,07,18,57,3.20
2019,04,07,18,58,3.20
2019,04,07,18,59,1.60
2019,04,07,19,00,1.60
2019,04,07,19,01,1.60
2019,04,07,19,02,3.20
2019,04,07,19,04,3.20
2019,04,07,19,05,6.40
2019,04,07,19,06,8.10
2019,04,07,19,07,8.10
2019,04,07,19,08,6.40
2019,04,07,19,09,6.40
2019,04,07,19,10,8.10
2019,04,07,19,11,8.10
2019,04,07,19,12,3.20
2019,04,07,19,13,1.60
2019,04,07,19,28,1.60
2019,04,07,19,29,3.20
2019,04,07,19,30,1.60
2019,04,07,19,31,1.60
2019,04,07,19,32,3.20
2019,04,07,19,33,1.60
2019,04,07,19,34,1.60
2019,04,07,19,35,1.60
2019,04,07,19,36,1.60
2019,04,07,19,37,3.20
2019,04,07,19,38,3.20
2019,04,07,19,39,3.20
2019,04,07,19,40,1.60
2019,04,07,19,41,1.60
2019,04,07,19,42,1.60
2019,04,07,19,43,1.60
2019,04,07,19,44,1.60
2019,04,07,19,45,1.60
2019,04,07,19,46,1.60
2019,04,07,19,47,1.60
2019,04,07,19,48,1.60
2019,04,07,19,49,1.60
2019,04,07,19,50,1.60
2019,04,07,19,51,1.60
2019,04,07,19,52,1.60
2019,04,07,19,53,1.60
2019,04,07,19,54,1.60
2019,04,07,20,07,3.20
2019,04,07,20,08,3.20
2019,04,07,20,09,3.20
2019,04,07,20,10,3.20
2019,04,07,20,11,3.20
2019,04,07,20,12,3.20
2019,04,07,20,13,1.60
2019,04,07,20,14,3.20
2019,04,07,20,15,3.20
2019,04,07,20,16,1.60
2019,04,07,20,17,1.60
2019,04,07,20,18,1.60
2019,04,07,20,19,3.20
2019,04,07,20,20,1.60
2019,04,07,20,21,1.60
2019,04,07,20,24,1.60
2019,04,07,20,25,1.60
2019,04,07,20,26,3.20
2019,04,07,20,27,3.20
2019,04,07,20,28,3.20
2019,04,07,20,29,3.20
2019,04,07,20,30,1.60
2019,04,07,20,36,1.60
2019,04,07,20,37,1.60
2019,04,07,20,38,1.60
2019,04,07,20,39,1.60
2019,04,07,20,40,1.60
2019,04,07,20,41,1.60
2019,04,07,20,49,1.60
2019,04,07,20,50,1.60
2019,04,07,20,51,1.60
2019,04,07,20,52,1.60
2019,04,07,20,53,1.60
2019,04,07,21,03,3.20
2019,04,07,21,04,3.20
2019,04,07,21,05,1.60
2019,04,07,21,07,1.60
2019,04,07,21,08,1.60
2019,04,07,21,09,1.60
2019,04,07,21,10,1.60
2019,04,07,21,11,1.60
2019,04,07,21,12,3.20
2019,04,07,21,13,3.20
2019,04,07,21,14,3.20
2019,04,07,21,15,1.60
2019,04,07,21,16,1.60
2019,04,07,21,28,1.60
2019,04,07,21,29,1.60
2019,04,07,21,31,1.60
2019,04,07,21,32,1.60
2019,04,07,21,49,1.60
2019,04,07,21,50,3.20
2019,04,07,21,51,3.20
2019,04,07,21,52,1.60
2019,04,07,21,53,1.60
2019,04,07,21,55,1.60
2019,04,07,21,59,3.20
2019,04,07,22,00,3.20
2019,04,07,22,01,1.60
2019,04,07,22,02,1.60
2019,04,07,22,19,1.60
2019,04,07,22,20,1.60
2019,04,07,22,21,3.20
2019,04,07,22,22,1.60
2019,04,07,22,23,1.60
2019,04,07,22,28,1.60
2019,04,07,22,29,1.60
2019,04,07,22,36,1.60
2019,04,07,22,37,1.60
2019,04,07,22,38,1.60
2019,04,07,23,06,1.60
2019,04,07,23,36,1.60
2019,04,07,23,37,1.60
2019,04,07,23,38,1.60
2019,04,07,23,44,3.20
2019,04,07,23,45,3.20
2019,04,07,23,47,1.60
2019,04,07,23,48,1.60
